STARLINK-2028 (47646 NORAD) Tracking and Keplerian Element Data

This shows tracking and keplerian element data for the satellite.

Feedback or suggestion? Click here.




ElementValue
Catalog47646
NameSTARLINK-2028
Epoch Orbit178
Epoch Day59.91667824
Epoch Year2021
RAAN38.0951
Inclination53.0498
Eccentricity0.0001593
Argument of Perigee108.6857
Mean Anonmoly23.7645
Mean Motion15.86621206
Decay Rate0.00111259
L11 47646U 21012AC 21059.91667824 .00111259 00000-0 42649-3 0 9990
L22 47646 53.0498 38.0951 0001593 108.6857 23.7645 15.86621206 1787

Live tracking and technical data element details for STARLINK-2028 (NORAD 47646). STARLINK-2028 can be tracked NOW for your location showing map with azimuth and elevation plus other details from your city location.

Track the satellite on the map from your city or location and see movement details for azimuth, elevation, latitude, longitude, range, height, and movement on the map or in text.







IsCatalogInMostPopularTable: catalog: 47646, numindb: 3
Update: records affected: 1



GetName: 47646 STARLINK-2028

Hit Count: updated at: Mon, 01 Mar 2021 16:37:01 GMT